Volver al catálogo

SCATSAT 1

ActivoMeteoSSO
NORAD 41790·PAYLOAD·🇮🇳 India

Lanzado Sep 26, 2016 desde Satish Dhawan Space Centre

Loading…

Próximos Pases (próximas 24 horas)

TLE

ActualizadoSource: Space-Track

Época: Sep 13, 2026, 17:39 UTC

1 41790U 16059H   26256.73552014  .00000719  00000-0  10106-3 0  9998
2 41790  98.1107 321.3832 0053556 323.7297  36.0287 14.79701753114688

Sigue SCATSAT 1 en tiempo real con AllMySat

Download on the App Store